User: anonymous   Login
Location: Unspecified
(0.0000°N, 0.0000°E)
Time: 22:32:52
(UTC+00:00)
Language:

CBERS-4 - Orbit

View from above orbital plane
View from above orbital plane
View from above satellite
View from above satellite

Ground track
Ground track

The orbit data is extracted from the following two-line orbital elements,

1 40336U 14079A   23082.99815920 -.00000208  00000-0 -57425-4 0  9994
2 40336  98.4492 156.7384 0001159 102.1509 257.8026 14.35448619434514
Epoch (UTC): 23 March 2023 23:57:20
Eccentricity: 0.0001159
inclination: 98.4492°
perigee height: 773 km
apogee height: 774 km
right ascension of ascending node: 156.7384°
argument of perigee: 102.1509°
revolutions per day: 14.35448619
mean anomaly at epoch: 257.8026°
orbit number at epoch: 43451

The dashed part of the orbit path shows where the satellite is in the earth's shadow,  

DLR